Location: Brno
(49.2000°N, 16.6330°E)
Time: 00:39:21
(UTC+02:00)

Vanguard 3 - Pass Details

Date: 08 August 2021
Orbit: 510 x 3260 km, 33.3° (Epoch: 19 September)

Event Time Altitude Azimuth Distance (km) Brightness Sun altitude
Rises 15:50:29 0° 209° (SSW) 4,283 11.5 42.0°
Reaches altitude 10° 15:53:37 10° 196° (SSW) 3,679 11.1 41.5°
Maximum altitude 16:01:22 25° 145° (SE) 3,436 10.5 40.4°
Drops below altitude 10° 16:12:33 10° 99° (E) 5,485 11.1 38.7°
Sets 16:18:37 0° 89° (E) 6,867 11.4 37.8°
